Weather in Shumyatino

Russia / Kaluga Oblast     54°59′36″N   36°20′10″E
temp.,
°C
wind,
m/s
gust,
m/s
humid.,
%
clouds,
%
prec.,
mm/h
press.,
hPa
HPBL,
m
13 june, sun
sun1300:00+13sw229299 0.0 100722
03:00+12sw22940 0.0 100732
06:00+13ssw24930 0.0 1007112
09:00+18ssw34770 0.0 1007567
12:00+21ssw34635 0.0 10061378
15:00+23ssw45588 0.0 10061679
18:00+21ssw47745 0.4 1006268
21:00+16sse3389100 0.8 100834
14 june, mon
mon1400:00+15s35955 0.0 100975
03:00+14ssw2396100 0.0 101040
06:00+15s249534 0.0 1012141
09:00+19ssw347949 0.0 1013523
12:00+23ssw446539 0.0 10141147
15:00+24ssw33595 0.0 10141560
18:00+24ssw226810 0.0 10141008
21:00+18wsw228339 0.4 101516
15 june, tue
tue1500:00+16w22905 0.0 101511
03:00+15nw11925 0.0 101511
06:00+17wnw11895 0.0 101548
09:00+21nw22755 0.0 1015473
12:00+24w22634 0.1 10131148
15:00+25wsw125556 0.5 10111498
18:00+22w357690 0.1 1010128
21:00+18nnw228240 0.4 101115
16 june, wed
wed1600:00+15nnw34913 0.0 101158
03:00+14nnw34910 0.0 101161
06:00+15nnw27891 0.0 1012207
09:00+19nnw5669100 0.0 1013537
12:00+21nnw566771 0.1 10131297
15:00+22n67610 0.6 10141647
18:00+20nnw59635 0.0 1015505
21:00+15n487444 0.0 1017127
17 june, thu
thu1700:00+12n38695 0.0 1020122
03:00+11n37750 0.0 1022107
06:00+11nne37820 0.0 1023179
09:00+17nne46570 0.0 1024569
12:00+20nne45480 0.0 10251444
15:00+22nne45460 0.0 10241707
18:00+21ne35605 0.0 1025451
21:00+15ne22735 0.0 102613